Burlington, IA

2:43 PM CDT on June 26, 2017 (GMT -0500)
Burlington Regional

Weather History for KBRL - March, 2013

Change the Weather History Date:

Friday, March 1, 2013

  Actual Average Record
Temperature  
Mean Temperature 28 °F 35 °F  
Max Temperature 30 °F 44 °F 75 °F (1992)
Min Temperature 26 °F 26 °F -11 °F (1962)
Degree Days  
Heating Degree Days 37 30  
Month to date heating degree days 37 30  
Since 1 July heating degree days 4408 4408  
Cooling Degree Days 0 0  
Month to date cooling degree days 0 0  
Year to date cooling degree days 0 0  
Moisture  
Dew Point 23 °F    
Average Humidity 78    
Maximum Humidity 92    
Minimum Humidity 63    
Precipitation  
Precipitation 0.06 in 0.09 in 1.16 in (1991)
Month to date precipitation 0.06 0.09  
Year to date precipitation 4.03 2.95  
Sea Level Pressure  
Sea Level Pressure 30.16 in    
Wind  
Wind Speed 10 mph (North)    
Max Wind Speed 18 mph    
Max Gust Speed 21 mph    
Visibility 6 miles    
Events Rain , Snow    
T = Trace of Precipitation, MM = Missing Value Source: NWS Daily Summary

Daily Weather History Graph

Daily Weather History Graph

Search for Another Location

Airport or City:

Trip Planner

Search our weather history database for the weather conditions in past years. The results will help you decide how hot, cold, wet, or windy it might be!

Date:

Astronomy

Mar. 01, 2013 Rise Set
Actual Time 6:38 AM CST 5:56 PM CST
Civil Twilight 6:10 AM CST 6:23 PM CST
Nautical Twilight 5:38 AM CST 6:55 PM CST
Astronomical Twilight 5:07 AM CST 7:27 PM CST
Moon 10:31 PM CST (3/1) 8:23 AM CST (3/1)
Length of Visible Light 12h 12m
Length of Day
11h 17m
Waning Gibbous, 83% of the Moon is Illuminated
Mar 1
Waning Gibbous
Mar 4
Last Quarter
Mar 11
New
Mar 19
First Quarter
Mar 27
Full

Hourly Weather History & Observations

Time (CST) Temp. Windchill Dew Point Humidity Pressure Visibility Wind Dir Wind Speed Gust Speed Precip Events Conditions
12:03 AM 28.4 °F 22.2 °F 26.6 °F 93% 30.09 in 2.5 mi NW 5.8 mph - 0.00 in Snow Light Snow
12:21 AM 28.4 °F 21.2 °F 26.6 °F 93% 30.09 in 2.5 mi NNW 6.9 mph - 0.00 in Snow Light Snow
12:46 AM 28.4 °F 21.2 °F 26.6 °F 93% 30.09 in 3.0 mi NNW 6.9 mph - 0.00 in Snow Light Snow
12:53 AM 28.0 °F 21.7 °F 26.1 °F 92% 30.11 in 3.0 mi North 5.8 mph - 0.00 in Snow Light Snow
1:07 AM 28.4 °F 21.2 °F 26.6 °F 93% 30.09 in 3.0 mi NNW 6.9 mph - 0.00 in Snow Light Snow
1:53 AM 28.4 °F 22.2 °F 26.6 °F 93% 30.09 in 3.0 mi NW 5.8 mph - N/A Snow Light Snow
2:01 AM 28.4 °F 22.2 °F 26.6 °F 93% 30.08 in 2.5 mi NNW 5.8 mph - 0.00 in Snow Light Snow
2:09 AM 28.4 °F 22.2 °F 26.6 °F 93% 30.08 in 3.0 mi NNW 5.8 mph - 0.00 in Snow Light Snow
2:16 AM 28.4 °F 21.2 °F 26.6 °F 93% 30.08 in 2.5 mi NW 6.9 mph - 0.00 in Snow Light Snow
2:26 AM 28.4 °F 20.4 °F 26.6 °F 93% 30.08 in 3.0 mi NW 8.1 mph - 0.00 in Snow Light Snow
2:43 AM 28.4 °F 21.2 °F 26.6 °F 93% 30.08 in 2.5 mi NW 6.9 mph - 0.00 in Snow Light Snow
2:51 AM 28.4 °F 21.2 °F 26.6 °F 93% 30.08 in 3.0 mi NW 6.9 mph - 0.00 in Snow Light Snow
2:53 AM 28.0 °F 20.8 °F 26.1 °F 92% 30.10 in 3.0 mi NNW 6.9 mph - 0.00 in Snow Light Snow
3:13 AM 28.4 °F 21.2 °F 26.6 °F 93% 30.08 in 2.5 mi NNW 6.9 mph - 0.00 in Snow Light Snow
3:46 AM 28.4 °F 21.2 °F 26.6 °F 93% 30.09 in 3.0 mi NNE 6.9 mph - 0.00 in Snow Light Snow
3:53 AM 28.9 °F 21.1 °F 27.0 °F 92% 30.11 in 3.0 mi NE 8.1 mph - 0.00 in Snow Light Snow
4:09 AM 28.4 °F 21.2 °F 26.6 °F 93% 30.09 in 4.0 mi NE 6.9 mph - 0.00 in Snow Light Snow
4:49 AM 28.4 °F 20.4 °F 24.8 °F 86% 30.09 in 9.0 mi ENE 8.1 mph - 0.00 in   Overcast
4:53 AM 28.0 °F 20.8 °F 25.0 °F 88% 30.12 in 9.0 mi ENE 6.9 mph - 0.00 in   Overcast
5:16 AM 28.4 °F 18.0 °F 24.8 °F 86% 30.09 in 6.0 mi ENE 12.7 mph - 0.00 in Snow Light Snow
5:44 AM 26.6 °F 15.7 °F 23.0 °F 86% 30.11 in 4.0 mi NE 12.7 mph - 0.00 in Snow Light Snow
5:53 AM 26.1 °F 15.6 °F 21.9 °F 84% 30.14 in 4.0 mi NE 11.5 mph - 0.00 in Snow Light Snow
6:01 AM 26.6 °F 17.5 °F 21.2 °F 80% 30.11 in 5.0 mi NE 9.2 mph - 0.00 in Snow Light Snow
6:53 AM 26.1 °F 16.8 °F 19.0 °F 75% 30.15 in 10.0 mi NNE 9.2 mph - 0.00 in   Overcast
7:53 AM 26.1 °F 16.2 °F 19.9 °F 78% 30.18 in 2.5 mi NNE 10.4 mph - 0.00 in Snow Light Snow
8:10 AM 26.6 °F 18.2 °F 21.2 °F 80% 30.15 in 1.8 mi NNE 8.1 mph - 0.00 in Snow Light Snow
8:41 AM 26.6 °F 16.8 °F 21.2 °F 80% 30.16 in 2.0 mi NNE 10.4 mph - 0.00 in Snow Light Snow
8:53 AM 26.1 °F 15.6 °F 21.9 °F 84% 30.19 in 1.8 mi North 11.5 mph - 0.00 in Snow Light Snow
9:08 AM 26.6 °F 16.8 °F 21.2 °F 80% 30.16 in 2.5 mi NNE 10.4 mph - 0.00 in Snow Light Snow
9:15 AM 26.6 °F 17.5 °F 21.2 °F 80% 30.16 in 3.0 mi North 9.2 mph - 0.00 in Snow Light Snow
9:49 AM 28.4 °F 17.5 °F 19.4 °F 69% 30.17 in 10.0 mi NNE 13.8 mph - N/A Rain Light Freezing Rain
9:53 AM 28.0 °F 16.1 °F 19.0 °F 69% 30.19 in 10.0 mi NNE 16.1 mph - 0.02 in Rain Light Freezing Rain
10:41 AM 26.6 °F 15.2 °F 21.2 °F 80% 30.18 in 8.0 mi NNE 13.8 mph - 0.02 in   Overcast
10:53 AM 27.0 °F 15.2 °F 21.0 °F 78% 30.20 in 9.0 mi NNE 15.0 mph - 0.03 in   Overcast
11:53 AM 28.9 °F 18.2 °F 21.0 °F 72% 30.21 in 10.0 mi NE 13.8 mph - 0.01 in   Overcast
12:53 PM 28.0 °F 18.1 °F 19.9 °F 72% 30.20 in 8.0 mi NNE 11.5 mph - 0.00 in   Overcast
1:05 PM 28.4 °F 18.0 °F 19.4 °F 69% 30.17 in 9.0 mi NNE 12.7 mph - N/A   Overcast
1:31 PM 28.4 °F 18.5 °F 19.4 °F 69% 30.17 in 10.0 mi NNE 11.5 mph - N/A   Overcast
1:53 PM 28.9 °F 19.2 °F 19.9 °F 69% 30.19 in 10.0 mi NNE 11.5 mph - N/A   Overcast
2:48 PM 30.2 °F 22.6 °F 19.4 °F 64% 30.17 in 10.0 mi North 8.1 mph - N/A   Overcast
2:53 PM 30.0 °F 22.4 °F 19.0 °F 64% 30.19 in 10.0 mi NNE 8.1 mph - N/A   Overcast
3:39 PM 28.4 °F 19.1 °F 19.4 °F 69% 30.18 in 9.0 mi NNW 10.4 mph - N/A   Overcast
3:53 PM 30.0 °F 21.7 °F 19.9 °F 66% 30.21 in 10.0 mi NNW 9.2 mph - N/A   Overcast
4:32 PM 28.4 °F 19.1 °F 19.4 °F 69% 30.19 in 10.0 mi North 10.4 mph - N/A   Overcast
4:53 PM 28.0 °F 17.5 °F 19.9 °F 72% 30.22 in 10.0 mi North 12.7 mph - N/A   Overcast
5:53 PM 28.4 °F 18.0 °F 19.4 °F 69% 30.21 in 10.0 mi North 12.7 mph - N/A   Overcast
6:15 PM 26.6 °F 16.2 °F 21.2 °F 80% 30.22 in 8.0 mi North 11.5 mph - N/A   Overcast
6:53 PM 27.0 °F 18.0 °F 21.9 °F 81% 30.26 in 6.0 mi North 9.2 mph - 0.00 in Snow Light Snow
7:53 PM 26.6 °F 18.2 °F 21.2 °F 80% 30.23 in 7.0 mi North 8.1 mph - N/A   Overcast
8:53 PM 26.1 °F 16.2 °F 21.9 °F 84% 30.27 in 4.0 mi NNE 10.4 mph - 0.00 in Snow Light Snow
9:48 PM 26.6 °F 18.2 °F 21.2 °F 80% 30.25 in 9.0 mi North 8.1 mph - 0.00 in   Overcast
9:53 PM 26.1 °F 16.2 °F 21.0 °F 81% 30.27 in 10.0 mi North 10.4 mph - 0.00 in   Overcast
10:53 PM 26.1 °F 17.6 °F 21.0 °F 81% 30.28 in 10.0 mi North 8.1 mph - N/A   Overcast
11:53 PM 26.1 °F 18.4 °F 19.9 °F 78% 30.27 in 10.0 mi North 6.9 mph - N/A   Overcast